| time (UTC) | temp C | wind direction | speed KPH | gust KPH | rain 1hr cm | rain 24hr cm | rain mn cm | humidity % | barometer mb |
| 20260508003026 | 9 | 25 | 3.2 | 4.8 | 0.00 | 0.00 | 0.00 | 82 | 1015.0 |
| 20260508001533 | 9 | 13 | 3.2 | 4.8 | 0.00 | 0.00 | 0.00 | 81 | 1015.1 |
| 20260508000022 | 9 | 13 | 1.6 | 3.2 | 0.00 | 0.00 | 0.00 | 81 | 1015.3 |
| 20260507234521 | 9 | 306 | 1.6 | 3.2 | 0.00 | 0.00 | 0.00 | 81 | 1015.5 |
| 20260507233018 | 9 | 253 | 1.6 | 3.2 | 0.00 | 0.00 | 0.00 | 80 | 1015.4 |
| 20260507231515 | 10 | 76 | 1.6 | 4.8 | 0.00 | 0.00 | 0.00 | 79 | 1015.4 |
| 20260507230013 | 10 | 51 | 1.6 | 8.0 | 0.00 | 0.00 | 0.00 | 79 | 1015.4 |
| 20260507224514 | 10 | 89 | 4.8 | 8.0 | 0.00 | 0.00 | 0.00 | 79 | 1015.5 |
| 20260507223012 | 10 | 79 | 3.2 | 6.4 | 0.00 | 0.00 | 0.00 | 78 | 1015.5 |
| 20260507221512 | 10 | 58 | 4.8 | 8.0 | 0.00 | 0.00 | 0.00 | 78 | 1015.5 |
| 20260507220012 | 11 | 69 | 4.8 | 9.7 | 0.00 | 0.00 | 0.00 | 78 | 1015.6 |
| 20260507214510 | 11 | 102 | 4.8 | 9.7 | 0.00 | 0.00 | 0.00 | 78 | 1015.6 |
| 20260507213016 | 11 | 82 | 4.8 | 9.7 | 0.00 | 0.00 | 0.00 | 78 | 1015.6 |
| 20260507211508 | 11 | 58 | 4.8 | 11.3 | 0.00 | 0.00 | 0.00 | 79 | 1015.6 |
| 20260507210007 | 11 | 89 | 4.8 | 12.9 | 0.00 | 0.00 | 0.00 | 79 | 1015.5 |
| 20260507204506 | 11 | 101 | 6.4 | 11.3 | 0.00 | 0.00 | 0.00 | 79 | 1015.5 |
| 20260507203005 | 11 | 77 | 8.0 | 12.9 | 0.00 | 0.00 | 0.00 | 78 | 1015.5 |
| 20260507201504 | 12 | 113 | 8.0 | 12.9 | 0.00 | 0.00 | 0.00 | 77 | 1015.2 |
| 20260507200003 | 12 | 77 | 6.4 | 12.9 | 0.00 | 0.00 | 0.00 | 76 | 1015.1 |
| 20260507194503 | 12 | 107 | 3.2 | 8.0 | 0.00 | 0.00 | 0.00 | 76 | 1015.0 |
| 20260507193001 | 12 | 77 | 3.2 | 8.0 | 0.00 | 0.00 | 0.00 | 76 | 1014.8 |
| 20260507191601 | 12 | 96 | 3.2 | 6.4 | 0.00 | 0.00 | 0.00 | 75 | 1014.8 |
| 20260507184600 | 13 | 178 | 1.6 | 6.4 | 0.00 | 0.00 | 0.00 | 74 | 1014.8 |
| 20260507183059 | 13 | 46 | 1.6 | 4.8 | 0.00 | 0.00 | 0.00 | 74 | 1014.7 |
| 20260507181559 | 13 | 108 | 3.2 | 8.0 | 0.00 | 0.00 | 0.00 | 74 | 1014.8 |
| 20260507180057 | 13 | 108 | 3.2 | 6.4 | 0.00 | 0.00 | 0.00 | 73 | 1014.8 |
| 20260507174602 | 13 | 74 | 3.2 | 6.4 | 0.00 | 0.00 | 0.00 | 73 | 1014.9 |
| 20260507173130 | 13 | 107 | 4.8 | 8.0 | 0.00 | 0.00 | 0.00 | 72 | 1014.8 |
| 20260507171557 | 13 | 223 | 1.6 | 9.7 | 0.00 | 0.00 | 0.00 | 72 | 1014.9 |
| 20260507170056 | 14 | 79 | 4.8 | 11.3 | 0.00 | 0.00 | 0.00 | 72 | 1014.8 |
| 20260507164655 | 15 | 98 | 4.8 | 11.3 | 0.00 | 0.00 | 0.00 | 71 | 1014.9 |
| 20260507163050 | 15 | 119 | 6.4 | 11.3 | 0.00 | 0.00 | 0.00 | 70 | 1014.8 |
| 20260507161552 | 15 | 103 | 6.4 | 14.5 | 0.00 | 0.00 | 0.00 | 71 | 1014.9 |
| 20260507160058 | 15 | 108 | 3.2 | 12.9 | 0.00 | 0.00 | 0.00 | 69 | 1015.0 |
| 20260507154549 | 16 | 101 | 6.4 | 12.9 | 0.00 | 0.00 | 0.00 | 68 | 1014.9 |
| 20260507153053 | 16 | 86 | 6.4 | 16.1 | 0.00 | 0.00 | 0.00 | 65 | 1014.9 |
| 20260507151547 | 17 | 120 | 8.0 | 12.9 | 0.00 | 0.00 | 0.00 | 64 | 1015.0 |
| 20260507150048 | 17 | 107 | 4.8 | 11.3 | 0.00 | 0.00 | 0.00 | 61 | 1015.1 |
| 20260507144550 | 17 | 152 | 3.2 | 9.7 | 0.00 | 0.00 | 0.00 | 63 | 1015.1 |
| 20260507143056 | 16 | 127 | 6.4 | 12.9 | 0.00 | 0.00 | 0.00 | 61 | 1015.3 |
| 20260507141553 | 16 | 113 | 4.8 | 9.7 | 0.00 | 0.00 | 0.00 | 64 | 1015.4 |
| 20260507140043 | 16 | 135 | 4.8 | 12.9 | 0.00 | 0.00 | 0.00 | 61 | 1015.4 |
| 20260507134544 | 17 | 132 | 6.4 | 12.9 | 0.00 | 0.00 | 0.00 | 60 | 1015.3 |
| 20260507133106 | 17 | 144 | 6.4 | 14.5 | 0.00 | 0.00 | 0.00 | 63 | 1015.4 |
| 20260507131543 | 16 | 115 | 4.8 | 14.5 | 0.00 | 0.00 | 0.00 | 63 | 1015.4 |
| 20260507130043 | 16 | 139 | 8.0 | 14.5 | 0.00 | 0.00 | 0.00 | 63 | 1015.5 |
| 20260507124535 | 16 | 158 | 6.4 | 12.9 | 0.00 | 0.00 | 0.00 | 62 | 1015.5 |
| 20260507123040 | 16 | 84 | 4.8 | 12.9 | 0.00 | 0.00 | 0.00 | 61 | 1015.5 |
| 20260507121534 | 16 | 151 | 6.4 | 16.1 | 0.00 | 0.00 | 0.00 | 61 | 1015.6 |
| 20260507120035 | 17 | 152 | 9.7 | 16.1 | 0.00 | 0.00 | 0.00 | 61 | 1015.7 |
| 20260507114532 | 16 | 155 | 8.0 | 16.1 | 0.00 | 0.00 | 0.00 | 62 | 1015.7 |
| 20260507113033 | 16 | 151 | 9.7 | 17.7 | 0.00 | 0.00 | 0.00 | 63 | 1015.7 |
| 20260507111525 | 16 | 141 | 8.0 | 17.7 | 0.00 | 0.00 | 0.00 | 66 | 1015.7 |
| 20260507110031 | 15 | 136 | 9.7 | 17.7 | 0.00 | 0.00 | 0.00 | 66 | 1015.8 |
| 20260507104523 | 16 | 138 | 9.7 | 17.7 | 0.00 | 0.00 | 0.00 | 68 | 1015.8 |
| 20260507103019 | 15 | 149 | 8.0 | 17.7 | 0.00 | 0.00 | 0.00 | 71 | 1015.8 |
| 20260507101522 | 15 | 160 | 8.0 | 17.7 | 0.00 | 0.00 | 0.00 | 70 | 1015.7 |
| 20260507100020 | 14 | 151 | 8.0 | 16.1 | 0.00 | 0.00 | 0.00 | 71 | 1015.6 |
| 20260507094511 | 15 | 166 | 9.7 | 19.3 | 0.00 | 0.00 | 0.00 | 71 | 1015.7 |
| 20260507093006 | 14 | 164 | 11.3 | 16.1 | 0.00 | 0.00 | 0.00 | 72 | 1015.5 |
| 20260507091503 | 13 | 165 | 8.0 | 17.7 | 0.00 | 0.00 | 0.00 | 72 | 1015.6 |
| 20260507090106 | 13 | 154 | 11.3 | 17.7 | 0.00 | 0.00 | 0.00 | 72 | 1015.5 |
| 20260507084600 | 13 | 170 | 8.0 | 16.1 | 0.00 | 0.00 | 0.00 | 73 | 1015.5 |
| 20260507083053 | 12 | 163 | 9.7 | 19.3 | 0.00 | 0.00 | 0.00 | 73 | 1015.5 |
| 20260507081550 | 12 | 144 | 8.0 | 14.5 | 0.00 | 0.00 | 0.00 | 74 | 1015.6 |
| 20260507080046 | 12 | 148 | 8.0 | 14.5 | 0.00 | 0.00 | 0.00 | 75 | 1015.6 |
| 20260507074548 | 12 | 136 | 8.0 | 12.9 | 0.00 | 0.00 | 0.00 | 76 | 1015.6 |
| 20260507073045 | 11 | 157 | 8.0 | 14.5 | 0.00 | 0.00 | 0.00 | 76 | 1015.5 |
| 20260507071538 | 11 | 152 | 8.0 | 12.9 | 0.00 | 0.00 | 0.00 | 77 | 1015.5 |
| 20260507070042 | 11 | 146 | 8.0 | 16.1 | 0.00 | 0.00 | 0.00 | 77 | 1015.3 |
| 20260507064529 | 10 | 146 | 6.4 | 12.9 | 0.00 | 0.00 | 0.00 | 78 | 1015.2 |
| 20260507063024 | 10 | 159 | 6.4 | 12.9 | 0.00 | 0.00 | 0.00 | 79 | 1015.3 |
| 20260507061523 | 10 | 135 | 6.4 | 12.9 | 0.00 | 0.00 | 0.00 | 80 | 1015.2 |
| 20260507060020 | 9 | 150 | 4.8 | 9.7 | 0.00 | 0.00 | 0.00 | 81 | 1015.1 |
| 20260507054514 | 9 | 152 | 3.2 | 6.4 | 0.00 | 0.00 | 0.00 | 81 | 1015.0 |
| 20260507053012 | 9 | 143 | 3.2 | 8.0 | 0.00 | 0.00 | 0.00 | 81 | 1015.0 |
| 20260507051513 | 9 | 159 | 3.2 | 6.4 | 0.00 | 0.00 | 0.00 | 81 | 1014.9 |
| 20260507050019 | 9 | 152 | 3.2 | 6.4 | 0.00 | 0.00 | 0.00 | 81 | 1015.0 |
| 20260507044507 | 9 | 162 | 3.2 | 6.4 | 0.00 | 0.00 | 0.00 | 81 | 1015.0 |
| 20260507043006 | 9 | 89 | 1.6 | 4.8 | 0.00 | 0.00 | 0.00 | 81 | 1014.9 |
| 20260507041505 | 9 | 147 | 1.6 | 4.8 | 0.00 | 0.00 | 0.00 | 81 | 1014.9 |
| 20260507040005 | 9 | 108 | 1.6 | 4.8 | 0.00 | 0.00 | 0.00 | 81 | 1015.0 |
| 20260507034502 | 9 | 83 | 3.2 | 4.8 | 0.00 | 0.00 | 0.00 | 81 | 1014.9 |
| 20260507033002 | 8 | 117 | 1.6 | 4.8 | 0.00 | 0.00 | 0.00 | 81 | 1014.9 |
| 20260507031604 | 8 | 89 | 1.6 | 4.8 | 0.00 | 0.00 | 0.00 | 80 | 1015.1 |
| 20260507030110 | 8 | 117 | 1.6 | 4.8 | 0.00 | 0.00 | 0.00 | 80 | 1015.1 |
| 20260507024613 | 8 | 145 | 1.6 | 4.8 | 0.00 | 0.00 | 0.00 | 79 | 1015.1 |
| 20260507023056 | 8 | 140 | 1.6 | 4.8 | 0.00 | 0.00 | 0.00 | 79 | 1015.0 |
| 20260507021558 | 8 | 124 | 1.6 | 3.2 | 0.00 | 0.00 | 0.00 | 78 | 1015.0 |
| 20260507020100 | 8 | 117 | 1.6 | 4.8 | 0.00 | 0.00 | 0.00 | 78 | 1015.1 |
| 20260507014558 | 8 | 147 | 1.6 | 4.8 | 0.00 | 0.00 | 0.00 | 77 | 1015.3 |
| 20260507013059 | 8 | 161 | 1.6 | 4.8 | 0.00 | 0.00 | 0.00 | 76 | 1015.4 |
| 20260507011554 | 8 | 171 | 1.6 | 3.2 | 0.00 | 0.00 | 0.00 | 76 | 1015.3 |
| 20260507010048 | 8 | 152 | 1.6 | 3.2 | 0.00 | 0.00 | 0.00 | 75 | 1015.3 |
| 20260507004547 | 8 | 117 | 0.0 | 3.2 | 0.00 | 0.00 | 0.00 | 75 | 1015.2 |